Starlink 11333

operational
NORAD ID: 62273 Int'l Des: 2024-237 Owner: SPXS Country: US Constellation: starlink
LEOCIRCULAR

Starlink 11333について

説明を読み込み中...

リアルタイム位置

3D地球を読み込み中...

次回通過

高度履歴

Altitude vs Time

uPlot chart will show altitude changes over time

軌道要素

1 62273U 24237G 25304.84479207 .00485058 00000-0 35509-2 0 9997
2 62273 42.9994 113.6635 0001315 314.9276 45.1485 15.70950121 52786
Epoch: Oct 31, 2025 • Age: 19 hours

現在のステータス

高度 366.5 km
速度 7.69 km/s
衛星直下点 -42.59°S, 112.54°E
打ち上げ日 Dec 8, 2024
運用期間 0.8 years
タイプ internet

技術仕様

分類 Payload
質量 960.00 kg
乾燥質量 910.00 kg
総質量 960.00 kg
長さ 0.30 m
直径 4.10 m
スパン 29.00 m
形状 Box + pan
製造者 SPXS
バスタイプ Starlink V2MD
フェーズステータス In Orbit
所有者/国 SPXS/US

大規模コンステレーション

Loading constellations...